Terug naar catalogus

GLOBAL-16

ActiefCommunicatieVLEO
NORAD 49950·PAYLOAD·🇺🇸 United States

Gelanceerd Dec 9, 2021 vanaf Rocket Lab Launch Complex 1

Loading…

Volgende Passages (komende 24 uur)

TLE

VersSource: Space-Track

Epoch: Sep 14, 2026, 00:35 UTC

1 49950U 21120B   26257.02453702  .00028064  00000-0  42018-3 0  9996
2 49950  41.9937 243.7048 0014114 155.6587 204.4927 15.54263004268653

Volg GLOBAL-16 in realtime met AllMySat

Download on the App Store